Weather observations for the past three days for
Utopia Creek, Indian Mountain LRRS Airport
Metric (Imperial)
Date Time (akdt) Wind (kph) Vis. (km) Weather Sky Cond. Temperature (ºC) Relative Humidity Wind Chill (°C) Heat Index (°C) Pressure Precipitation (cm)
Air Dwpt 6 hour altimeter (cm) sea level (mb) 1 hr 3 hr 6 hr
Max. Min.
16 03:55 Vrbl 7 16.09 Fair CLR 12.9 5.1 17.7 12.6 59% 76.56 1019.9
16 02:55 Vrbl 11 16.09 Fair CLR 13.5 4.8 56% 76.56 1020.1
16 01:55 Vrbl 7 16.09 Fair CLR 12.9 3.7 54% 76.56 1020.2
16 00:55 Vrbl 6 16.09 Fair CLR 13.9 2.7 47% 76.56 1020.2
15 23:55 Vrbl 6 16.09 Fair CLR 15.6 2.9 43% 76.56 1020.0
15 22:55 Vrbl 6 16.09 Fair CLR 16.6 3.3 41% 76.53 1019.8
15 21:55 W 4 16.09 Fair CLR 17.6 3.1 19.8 17.7 38% 76.53 1019.8
15 20:55 Vrbl 7 16.09 Fair CLR 18.7 2.5 34% 76.53 1019.6
15 19:55 Vrbl 7 16.09 Fair CLR 19.2 2.4 33% 76.53 1019.8
15 18:55 Vrbl 7 16.09 Fair CLR 19.4 2.7 33% 76.56 1020.0
15 17:55 Vrbl 9 16.09 Fair CLR 19.3 3 34% 76.56 1020.2
15 16:55 Vrbl 11 16.09 Fair CLR 19.2 2.5 33% 76.58 1020.4
15 15:55 Vrbl 4 16.09 Fair CLR 18.7 4.2 18.6 13.1 38% 76.61 1020.8
15 14:55 Vrbl 9 16.09 Fair CLR 17.9 3.3 38% 76.61 1021.1
15 13:55 Vrbl 7 16.09 Fair CLR 17.4 2.5 37% 76.63 1021.2
15 12:55 N 13 16.09 Fair CLR 16.6 1.9 37% 76.63 1021.2
15 11:55 N 13 16.09 Fair CLR 15.8 2.9 42% 76.66 1021.5
15 10:55 Vrbl 11 16.09 Fair CLR 14.4 2.6 45% 76.68 1022.0
15 09:55 N 15 16.09 Fair CLR 13.1 2.5 13.1 8.9 49% 76.71 1022.1
15 08:55 N 15 G 26 16.09 Fair CLR 12.4 2 49% 76.68 1022.1
15 07:55 NW 13 16.09 Fair CLR 11.7 2.4 53% 76.66 1021.7
15 06:55 NW 15 16.09 Fair CLR 11.7 2 52% 76.66 1021.7
15 05:55 Vrbl 11 16.09 Fair CLR 10.9 2.3 56% 76.66 1021.6
15 04:55 W 13 16.09 Fair CLR 10.2 3.2 62% 76.66 1021.5
15 03:55 Vrbl 9 16.09 Fair CLR 9.4 2.8 15.6 8.8 64% 8 76.66 1021.7
15 02:55 Vrbl 11 16.09 Fair CLR 10.6 2.2 56% 76.63 1021.3
15 01:55 NW 17 16.09 Fair CLR 11.2 3 57% 76.63 1021.4
15 00:55 NW 11 16.09 Fair CLR 12.1 3.7 57% 76.61 1021.0
14 23:55 Vrbl 7 16.09 Fair CLR 12.9 4.2 56% 76.61 1020.8
14 22:55 Vrbl 11 16.09 Fair CLR 14 5.7 58% 76.58 1020.7
14 21:55 Vrbl 7 16.09 Fair CLR 15.5 5.8 18.9 15.2 53% 76.58 1020.4
14 20:55 W 13 16.09 Fair CLR 16.5 5.7 49% 76.53 1020.0
14 19:55 Vrbl 9 16.09 Fair CLR 17.8 5.2 44% 76.53 1019.8
14 18:55 W 17 16.09 Fair CLR 18.4 5.3 42% 76.53 1019.9
14 17:55 NW 15 16.09 Fair CLR 18.7 5.2 41% 76.53 1019.9
14 16:55 Vrbl 11 16.09 Fair CLR 18.7 5.5 42% 76.56 1020.1
14 15:55 Vrbl 11 16.09 Fair CLR 18.2 6.6 18.1 13.5 47% 76.56 1020.3
14 14:55 NW 15 16.09 Fair CLR 17.4 6 47% 76.58 1020.5
14 13:55 W 13 G 26 16.09 Fair CLR 16.8 6.3 50% 76.61 1020.7
14 12:55 N 17 G 31 16.09 Fair CLR 16 6.8 55% 76.61 1020.8
14 11:55 Vrbl 11 16.09 Fair CLR 15.2 6.1 55% 76.63 1021.2
14 10:55 Vrbl 11 16.09 Fair CLR 14.8 6.3 57% 76.63 1021.3
14 09:55 NW 17 16.09 Fair CLR 13.6 5.7 13.6 10.5 59% 76.61 1021.1
14 08:55 W 17 16.09 Fair CLR 12.8 5.8 63% 76.61 1021.0
14 07:55 W 13 G 30 16.09 Fair CLR 11.9 5.5 65% 76.61 1020.9
14 06:55 NW 19 16.09 Fair CLR 11.1 5.5 69% 76.61 1020.8
14 05:55 NW 19 G 30 16.09 Fair CLR 10.9 6.1 73% 76.58 1020.6
14 04:55 W 13 16.09 Fair CLR 10.9 6.8 76% 76.56 1020.4
14 03:55 Vrbl 9 16.09 Fair CLR 10.8 7.3 14.7 11.1 79% 76.56 1020.3
14 02:55 Vrbl 11 16.09 A Few Clouds FEW023 11.6 8 79% 76.53 1020.0
14 01:55 NW 17 16.09 Fair CLR 12.1 8 76% 76.53 1020.0
14 00:55 W 9 16.09 Fair CLR 12.6 8.1 74% 76.53 1019.9
13 23:55 Vrbl 4 16.09 Fair CLR 13.1 7.9 71% 76.5 1019.6
13 22:55 W 4 16.09 Fair CLR 13.8 8.1 69% 76.5 1019.6
13 21:55 SW 9 16.09 Fair CLR 14.7 8.4 18.1 14.7 66% 76.53 1019.7
13 20:55 SW 15 16.09 Fair CLR 16 8.3 60% 76.5 1019.3
13 19:55 SW 17 16.09 Fair CLR 16.6 7.8 56% 76.48 1019.2
13 18:55 SW 19 16.09 Thunderstorm in Vicinity CLR 17.4 7.9 54% 76.48 1019.1
13 17:55 SW 17 16.09 Fair CLR 17.5 7.8 53% 76.48 1019.3
13 16:55 SW 20 16.09 A Few Clouds FEW035 17.3 8.2 55% 76.5 1019.5
13 15:55 SW 19 16.09 Mostly Cloudy BKN032 17.6 8.9 18.1 14.1 57% 76.5 1019.4
13 14:55 Vrbl 4 16.09 Mostly Cloudy BKN026 17 9.1 60% 76.5 1019.5
13 13:55 Vrbl 9 16.09 Mostly Cloudy BKN028 14.8 10.5 76% 76.5 1019.7
13 12:55 SW 17 16.09 Mostly Cloudy BKN022 15.9 11.1 73% 76.5 1019.5
13 11:55 SW 15 16.09 Mostly Cloudy BKN021 15.2 11.2 77% 76.5 1019.6
13 10:55 SW 17 16.09 Mostly Cloudy BKN018 14.8 11.2 79% 76.5 1019.5
13 09:55 SW 19 16.09 Mostly Cloudy BKN016 BKN065 14.4 11.2 14.9 12.1 81% 76.48 1019.1
13 08:55 SW 17 16.09 Mostly Cloudy BKN027 BKN070 14.1 11.9 87% 76.45 1018.9
13 07:55 SW 15 16.09 Mostly Cloudy FEW014 BKN075 13.9 12.2 90% 76.43 1018.5
13 06:55 SW 11 16.09 Mostly Cloudy BKN012 13.8 11.7 87% 76.43 1018.2
13 05:55 SW 17 16.09 Fair CLR 12.6 11.2 91% 76.38 1017.8
13 04:55 W 6 16.09 Fair CLR 12.9 10.6 86% 76.35 1017.4
Date Time (akdt) Wind (kph) Vis. (km) Weather Sky Cond. Air Dwpt Max. Min. Relative Humidity Wind Chill (°C) Heat Index (°C) altimeter (cm) sea level (mb) 1 hr 3 hr 6 hr
6 hour
Temperature (ºC) Pressure Precipitation (cm)